Starlink 31192

operational
NORAD ID: 58794 Int'l Des: 2024-012 Owner: SPXS Country: US Constellation: starlink
LEOCIRCULAR

Starlink 31192について

説明を読み込み中...

リアルタイム位置

3D地球を読み込み中...

次回通過

高度履歴

Altitude vs Time

uPlot chart will show altitude changes over time

軌道要素

1 58794U 24012H 25258.18094382 -.00001978 00000-0 -65805-4 0 9994
2 58794 43.0007 76.4687 0001532 273.0887 86.9788 15.25897831 94393
Epoch: Sep 15, 2025 • Age: 24 hours

現在のステータス

高度 491.5 km
速度 7.62 km/s
衛星直下点 40.06°N, 76.01°E
打ち上げ日 Jan 15, 2024
運用期間 1.6 years
タイプ internet

技術仕様

分類 Payload
質量 730.00 kg
乾燥質量 700.00 kg
総質量 730.00 kg
長さ 0.30 m
直径 4.10 m
スパン 29.00 m
形状 Box + pan
製造者 SPXS
バスタイプ Starlink V2M
フェーズステータス In Orbit
所有者/国 SPXS/US

大規模コンステレーション

Loading constellations...